Regional Weather Roundup
Issued by NWS

Home | Current Version | Previous Version | Text Only | Print | Product List | Glossary On
Versions: 1 2 3 4 5 6 7 8 9 10 11 12 13 14 15 16 17 18 19 20 21 22 23 24 25 26 27 28 29 30 31 32 33 34 35 36 37 38 39 40 41 42 43 44 45 46 47 48 49 50
000
ASUS43 KMPX 070701
RWRMN
WEATHER ROUNDUP FOR MINNESOTA
NATIONAL WEATHER SERVICE TWIN CITIES/CHANHASSEN MN
200 AM CDT THU MAY 07 2015


NOTE: "FAIR" INDICATES FEW OR NO CLOUDS BELOW 12,000 FEET WITH NO
SIGNIFICANT WEATHER AND/OR OBSTRUCTIONS TO VISIBILITY. N/A MEANS
CURRENT SKY AND/OR WEATHER CONDITIONS ARE NOT AVAILABLE.

MNZ060>063-068>070-070800-
   Twin Cities Metro

CITY           SKY/WX    TMP DP  RH WIND       PRES   REMARKS
TWIN CITIES    MOCLDY    65  58  78 SE8       29.84F
ST PAUL        MOCLDY    64  59  83 SE12      29.85F
CRYSTAL        MOCLDY    67  58  72 SE13      29.82F
BLAINE         PTCLDY    66  61  82 SE10      29.84S
LAKEVILLE      MOCLDY    63  57  82 SE8       29.84F
EDEN PRAIRIE   MOCLDY    65  58  78 SE14      29.82F
SOUTH ST PAUL  MOCLDY    64  58  82 SE6       29.85F
LAKE ELMO      FAIR      63  59  88 SE7       29.87F
$$
MNZ001>005-007-008-013>017-022>024-027-028-070800-
   Northwest Minnesota

CITY           SKY/WX    TMP DP  RH WIND       PRES   REMARKS
BEMIDJI        PTCLDY    58  57  97 SE9       29.76F
HALLOCK        CLOUDY    63  61  94 SE15      29.63F
ROSEAU         CLOUDY    63  57  82 S16       29.70F
WARROAD        CLOUDY    61  55  82 S12G21    29.72F
THIEF RVR FALL MOCLDY    63  59  88 SE13      29.69F
CROOKSTON      MOCLDY    63  61  94 S14       29.67F
FOSSTON        MOCLDY    63  57  82 SE12G17   29.72F
DETROIT LAKES  MOCLDY    63  61  94 SE12      29.73F
MOORHEAD       MOCLDY    64  59  82 SE14G21   29.67F
PARK RAPIDS    MOCLDY    63  60  90 SE12      29.75F
MAHNOMEN       CLOUDY    63  60  88 SE13      29.71F
$$
MNZ006-009>011-018-025>026-070800-
   North Central Minnesota

CITY           SKY/WX    TMP DP  RH WIND       PRES   REMARKS
BAUDETTE       CLOUDY    58  55  90 SE10      29.75F
FLAG ISLAND    CLOUDY    57  54  88 S20       29.72F
INTL FALLS     CLOUDY    58  54  86 SE8       29.80F
WASKISH        CLOUDY    59  55  88 SE7       29.76F
BIG FORK       MOCLDY    59  54  82 SE6       29.82F
LONGVILLE      PTCLDY    55  54  94 SE3       29.79F
GRAND RAPIDS   MOCLDY    55  48  76 SE9       29.83F
CRANE LAKE     MOCLDY    61  54  77 SE5       29.85F
ORR            MOCLDY    59  52  77 SE7       29.81F
COOK           CLOUDY    61  54  77 SE5       29.85F
WALKER         FAIR      58  57  96 SE3       29.77F
$$
MNZ012-019>021-037-070800-
   Northeast Minnesota

CITY           SKY/WX    TMP DP  RH WIND       PRES   REMARKS
DULUTH         MOCLDY    52  48  86 SE10      29.89F
ELY            MOCLDY    59  54  82 SE10      29.88F
HIBBING        MOCLDY    57  51  80 SE6       29.85F
EVELETH        PTCLDY    57  54  88 SE7       29.87F
DULUTH HARBOR    N/A     43  39  87 E6        29.91F
TWO HARBORS    MOCLDY    57  54  88 NE3       29.89F
SILVER BAY     CLOUDY    54  52  94 CALM      29.90F
GRAND MARAIS     N/A     47  41  80 N6        29.95F
G MARAIS ARPRT DRIZZLE   55  46  71 SE6       29.97F
$$
MNZ029>031-032-039>041-046>048-054>057-064-070800-
   West Central Minnesota

CITY           SKY/WX    TMP DP  RH WIND       PRES   REMARKS
FERGUS FALLS   CLOUDY    64  59  82 SE16      29.70F
WHEATON        CLOUDY    59  57  94 SE12      29.69F
MORRIS         LGT RAIN  63  61  94 SE17      29.69F
ALEXANDRIA     TSTM      62  58  86 SE14      29.76F FOG
ELBOW LAKE     CLOUDY    64  58  83 SE17G23   29.70F
WADENA         PTCLDY    61  59  94 SE9       29.74F
GLENWOOD       CLOUDY    63  59  88 SE16      29.76S
APPLETON       CLOUDY    64  59  82 SE12G18   29.68F
BENSON         LGT RAIN  63  57  82 S12       29.72F
ORTONVILLE     DRIZZLE   63  59  88 SE14      29.67F
MADISON        LGT RAIN  63  59  88 SE15      29.67F
WILLMAR        RAIN      64  61  88 SE18G25   29.76S
$$
MNZ033>034-036-042>043-049>051-058-059-070800-
   Central Minnesota

CITY           SKY/WX    TMP DP  RH WIND       PRES   REMARKS
ST CLOUD       CLOUDY    64  58  80 SE9       29.80S
SAUK CENTRE    CLOUDY    64  58  81 SE14      29.77F
PAYNESVILLE    LGT RAIN  61  57  86 E10       29.78F
AITKIN         PTCLDY    63  55  77 SE8       29.79F
PINE RIVER     PTCLDY    59  57  94 E6        29.82F
BRAINERD       CLEAR     63  58  83 SE14G21   29.80F
STAPLES        MOCLDY    61  59  94 SE6       29.77F
LONG PRAIRIE   CLOUDY    63  57  82 SE13      29.77F
LITTLE FALLS   MOCLDY    61  57  88 SE9       29.79S
LITCHFIELD     DRIZZLE   64  61  88 SE14G20   29.78F
BUFFALO        CLOUDY    65  57  73 SE9       29.82F
MAPLE LAKE     CLOUDY    66  60  81 SE9       29.81F
$$
MNZ037-044-045-052-053-070800-
   East Central Minnesota

CITY           SKY/WX    TMP DP  RH WIND       PRES   REMARKS
PRINCETON      CLEAR     66  59  77 SE9       29.83S
MORA           PTCLDY    63  57  82 SE8       29.85F
CAMBRIDGE      PTCLDY    66  55  68 SE8       29.82F
RUSH CITY      MOCLDY    63  57  82 SE12      29.85F
MOOSE LAKE     MOCLDY    45  37  76 NE5       29.85F
HINCKLEY       FAIR      64  59  82 SE8       29.85F
CLOQUET        MOCLDY    46  39  76 E3        29.88S
MCGREGOR       MOCLDY    54  50  87 E6        29.84F
$$
MNZ071>073-080-081-089-090-097-098-070800-
   Southwest Minnesota

CITY           SKY/WX    TMP DP  RH WIND       PRES   REMARKS
MONTEVIDEO     CLOUDY    64  61  88 S15G21    29.71F
GRANITE FALLS  CLOUDY    64  59  84 SE14G23   29.72F
CANBY          CLOUDY    64  59  85 SE14      29.68F
MARSHALL       CLOUDY    64  55  72 SE15      29.68F
REDWOOD FALLS  LGT RAIN  64  60  87 SE16      29.72F
OLIVIA         LGT RAIN  61  55  82 SE15G21   29.74F
PIPESTONE      CLOUDY    63  57  82 S16       29.68F
WINDOM         CLOUDY    63  59  88 SE21G33   29.74F
WORTHINGTON    CLOUDY    63  57  82 SE21G30   29.70F
JACKSON        CLOUDY    64  57  77 S16G29    29.75F THUNDER
TRACY          CLOUDY    65  60  85 S18G25    29.70F
SLAYTON        CLOUDY    62  59  91 SE23G30   29.70F
$$
MNZ065>067-074>077-082>085-091>093-070800-
   South Central Minnesota

CITY           SKY/WX    TMP DP  RH WIND       PRES   REMARKS
MANKATO        MOCLDY    64  57  77 SE20G26   29.80F
NEW ULM        MOCLDY    64  57  77 SE13      29.77F
ST JAMES       MOCLDY    66  57  72 SE22G29   29.76F
FAIRMONT       CLOUDY    64  36  34 SE25      29.76F
GLENCOE        PTCLDY    65  60  82 SE13      29.79F
FARIBAULT      MOCLDY    64  57  77 SE13G18   29.84F
OWATONNA       MOCLDY    64  57  77 SE13      29.84F
WASECA         CLOUDY    63  55  77 SE16G22   29.84F
ALBERT LEA     CLOUDY    64  57  77 SE21G26   29.84F
$$
MNZ078>079-086>088-094>096-070800-
   Southeast Minnesota

CITY           SKY/WX    TMP DP  RH WIND       PRES   REMARKS
ROCHESTER      CLEAR     61  56  83 SE9       29.90F
RED WING       PTCLDY    64  57  77 SE8       29.86F
STANTON        CLOUDY    65  57  75 SE10      29.84F
DODGE CENTER   MOCLDY    61  57  88 SE13      29.87F
WINONA         MOCLDY    61  59  94 SE5       29.92S
AUSTIN         MOCLDY    63  57  82 S10G16    29.87S
PRESTON        PTCLDY    61  56  82 SE10      29.91F
$$
ABBREVIATIONS USED IN REMARKS
   TC - TEMPERATURES IN CELSIUS
  WCI - WIND CHILL INDEX
   HX - HEAT INDEX
  VSB - VISIBILITY
$$



USA.gov is the U.S. government's official web portal to all federal, state and local government web resources and services.